THEMIS A

Last updated on Tue Oct 14 2025 00:02:39 GMT+0000 (Coordinated Universal Time)

1 30580U 07004A 25284.99616693 .00000076 00000+0 41135-2 0 9995 2 30580 4.0753 154.1403 8448514 126.5090 342.3938 0.87835110 39098
UTC large
Height (km)
Speed (km/s)
/
Latitude / Longitude
Inclination (degrees)
Orbital Period (minutes)
Azimuth
Elevation
Range (km)
Doppler Factor

Next 0 passes for location: London (51.5072 / 0.1276)

Sorry there are no passes over London.